Location: Aydie
(43.5695°N, 0.1043°W)
Time: 12:22:49
(UTC+00:00)

Cosmos 371 Rocket - Pass Details

Date: 17 November 2025
Orbit: 674 x 690 km, 74.0° (Epoch: 11 December)

Event Time Altitude Azimuth Distance (km) Brightness Sun altitude
Rises 18:03:59 0° 183° (S) 3,025 6.8 -16.4°
Reaches altitude 10° 18:06:20 10° 177° (S) 2,117 5.9 -16.8°
Maximum altitude 18:10:53 47° 105° (ESE) 908 3.5 -17.6°
Enters shadow 18:12:52 30° 50° (NE) 1,232 4.1 -17.9°
